Back to catalog

GALAXY 6

AliveCommunicationsGEO
NORAD 20873·PAYLOAD·🇺🇸 United States

Launched Oct 12, 1990 from Guiana Space Centre

Loading…

TLE

FreshSource: Space-Track

Epoch: Sep 14, 2026, 10:41 UTC

1 20873U 90091B   26257.44538215  .00000015  00000-0  00000-0 0  9999
2 20873  14.0849   9.3265 0006413 229.2710 158.6344  0.99756029 47346

Track GALAXY 6 in real time with AllMySat

Download on the App Store